DW6723 Weather Reports


time (UTC)temp
C
wind
direction
speed
KPH
gust
KPH
rain 1hr
cm
rain 24hr
cm
rain mn
cm
humidity
%
barometer
mb
20260505051538 14 251 9.7 19.3 0.00 0.00 0.00 58 1009.7
20260505041547 15 246 9.7 17.7 0.00 0.00 0.00 55 1009.7
20260505040010 15 229 4.8 14.5 0.00 0.00 0.00 54 1009.5
20260505034514 15 253 8.0 16.1 0.00 0.00 0.00 53 1009.5
20260505033057 15 242 6.4 19.3 0.00 0.00 0.00 52 1009.4
20260505031604 15 205 8.0 16.1 0.00 0.00 0.00 51 1009.4
20260505030052 15 213 6.4 14.5 0.00 0.00 0.00 51 1009.4
20260505024559 16 227 4.8 19.3 0.00 0.00 0.00 49 1009.3
20260505023047 16 194 4.8 12.9 0.00 0.00 0.00 49 1009.4
20260505021548 16 218 6.4 16.1 0.00 0.00 0.00 48 1009.4
20260505020044 16 213 8.0 17.7 0.00 0.00 0.00 47 1009.4
20260505014600 17 227 8.0 22.5 0.00 0.00 0.00 47 1009.2
20260505013020 17 186 6.4 20.9 0.00 0.00 0.00 46 1009.0
20260505011517 17 226 9.7 29.0 0.00 0.00 0.00 45 1008.6
20260505010056 17 264 8.0 29.0 0.00 0.00 0.00 44 1008.3
20260505004553 18 241 14.5 29.0 0.00 0.00 0.00 42 1007.9
20260505003038 18 214 12.9 25.7 0.00 0.00 0.00 41 1007.5
20260505001536 19 271 12.9 29.0 0.00 0.00 0.00 39 1007.0
20260505000044 20 206 3.2 12.9 0.00 0.00 0.00 34 1006.6
20260504234533 21 323 6.4 11.3 0.00 0.00 0.00 33 1006.4
20260504233025 21 230 4.8 12.9 0.00 0.00 0.00 32 1006.2
20260504231522 21 271 12.9 27.4 0.00 0.00 0.00 31 1005.9
20260504230021 22 224 9.7 24.1 0.00 0.00 0.00 31 1005.7
20260504224522 22 234 8.0 22.5 0.00 0.00 0.00 30 1005.6
20260504223003 22 254 11.3 27.4 0.00 0.00 0.00 29 1005.6
20260504221502 22 273 8.0 20.9 0.00 0.00 0.00 29 1005.5
20260504220045 22 261 9.7 20.9 0.00 0.00 0.00 29 1005.5
20260504214543 22 275 12.9 27.4 0.00 0.00 0.00 29 1005.5
20260504213037 22 273 11.3 29.0 0.00 0.00 0.00 29 1005.4
20260504211531 22 231 9.7 24.1 0.00 0.00 0.00 29 1005.5
20260504210006 22 271 9.7 25.7 0.00 0.00 0.00 28 1005.5
20260504204519 22 238 8.0 25.7 0.00 0.00 0.00 28 1005.5
20260504203003 22 236 11.3 25.7 0.00 0.00 0.00 27 1005.6
20260504201502 22 250 19.3 37.0 0.00 0.00 0.00 27 1005.6
20260504200125 22 239 17.7 33.8 0.00 0.00 0.00 27 1005.7
20260504194603 22 5 12.9 45.1 0.00 0.00 0.00 27 1005.6
20260504193057 21 319 12.9 35.4 0.00 0.00 0.00 27 1005.7
20260504191558 21 298 17.7 37.0 0.00 0.00 0.00 28 1005.7
20260504190053 21 259 19.3 48.3 0.00 0.00 0.00 28 1005.8
20260504184540 21 267 20.9 37.0 0.00 0.00 0.00 27 1006.0
20260504183038 21 325 17.7 41.8 0.00 0.00 0.00 27 1006.2
20260504181543 21 254 14.5 35.4 0.00 0.00 0.00 29 1006.2
20260504180037 20 257 11.3 37.0 0.00 0.00 0.00 29 1006.3
20260504174535 20 263 17.7 40.2 0.00 0.00 0.00 30 1006.3
20260504173036 20 224 17.7 41.8 0.00 0.00 0.00 30 1006.5
20260504171533 20 254 12.9 35.4 0.00 0.00 0.00 30 1006.6
20260504160108 18 291 20.9 41.8 0.00 0.00 0.00 32 1007.1
20260504081529 8 261 4.8 11.3 0.00 0.00 0.00 53 1010.0